Location: Chervonnoye
(48.6000°N, 34.4000°E)
Time: 13:06:09
(UTC+00:00)

deb Kosmos-2237 - Pass Details

Date: 15 June 2021
Orbit: 850 x 1045 km, 71.0° (Epoch: 25 July)

Event Time Altitude Azimuth Distance (km) Brightness Sun altitude
Exits shadow 19:14:01 - 192° (SSW) 3,386 ? -10.7°
Reaches altitude 10° 19:16:08 10° 189° (S) 2,608 ? -10.9°
Maximum altitude 19:22:03 59° 111° (ESE) 1,094 ? -11.5°
Drops below altitude 10° 19:28:19 10° 34° (NE) 2,760 ? -12.0°
Sets 19:30:59 0° 31° (NNE) 3,739 ? -12.2°
